Time,TemperatureF,DewpointF,PressureIn,WindDirection,WindDirectionDegrees,WindSpeedMPH,WindSpeedGustMPH,Humidity,HourlyPrecipIn,Conditions,Clouds,dailyrainin,SoftwareType,DateUTC
2013-03-31 00:02:00,35.0,33.0,-100.00,SE,125,1.0,1.0,93,0.00,,,0.04,,2013-03-31 08:02:00,
2013-03-31 00:12:00,35.0,33.0,-100.00,SE,125,1.0,1.0,93,0.00,,,0.04,,2013-03-31 08:12:00,
2013-03-31 00:21:00,35.0,33.0,-100.00,SE,125,0.0,1.0,94,0.00,,,0.04,,2013-03-31 08:21:00,
2013-03-31 00:32:00,35.0,33.0,-100.00,SE,125,0.0,1.0,94,0.00,,,0.04,,2013-03-31 08:32:00,
2013-03-31 00:42:00,35.0,33.0,-100.00,SE,125,0.0,1.0,94,0.00,,,0.04,,2013-03-31 08:42:00,
2013-03-31 00:51:00,35.0,33.0,-100.00,ESE,105,1.0,1.0,95,0.00,,,0.04,,2013-03-31 08:51:00,
2013-03-31 01:01:00,35.0,33.0,-100.00,ESE,105,1.0,1.0,95,0.00,,,0.04,,2013-03-31 09:01:00,
2013-03-31 01:12:00,35.0,33.0,-100.00,ESE,105,1.0,1.0,95,0.00,,,0.04,,2013-03-31 09:12:00,
2013-03-31 01:21:00,35.0,33.0,-100.00,ESE,105,1.0,2.0,95,0.00,,,0.04,,2013-03-31 09:21:00,
2013-03-31 01:32:00,35.0,33.0,-100.00,ESE,105,1.0,2.0,95,0.00,,,0.04,,2013-03-31 09:32:00,
2013-03-31 01:42:00,35.0,33.0,-100.00,ESE,105,1.0,2.0,95,0.00,,,0.04,,2013-03-31 09:42:00,
2013-03-31 01:52:00,35.0,33.0,-100.00,East,100,1.0,1.0,95,0.00,,,0.04,,2013-03-31 09:52:00,
2013-03-31 02:03:00,35.0,33.0,-100.00,East,100,1.0,1.0,95,0.00,,,0.04,,2013-03-31 10:03:00,
2013-03-31 02:12:00,35.0,33.0,-100.00,East,100,1.0,1.0,95,0.00,,,0.04,,2013-03-31 10:12:00,
2013-03-31 02:23:00,35.0,33.0,-100.00,SE,140,1.0,2.0,93,0.00,,,0.04,,2013-03-31 10:23:00,
2013-03-31 02:32:00,35.0,33.0,-100.00,SE,140,1.0,2.0,93,0.00,,,0.04,,2013-03-31 10:32:00,
2013-03-31 02:42:00,35.0,33.0,-100.00,SE,140,1.0,2.0,93,0.00,,,0.04,,2013-03-31 10:42:00,
2013-03-31 02:52:00,34.0,32.0,-100.00,North,5,0.0,1.0,93,0.00,,,0.04,,2013-03-31 10:52:00,
2013-03-31 03:02:00,34.0,32.0,-100.00,North,5,0.0,1.0,93,0.00,,,0.04,,2013-03-31 11:02:00,
2013-03-31 03:12:00,34.0,32.0,-100.00,North,5,0.0,1.0,93,0.00,,,0.04,,2013-03-31 11:12:00,
2013-03-31 03:22:00,33.0,32.0,-100.00,NW,320,0.0,0.0,94,0.00,,,0.04,,2013-03-31 11:22:00,
2013-03-31 03:32:00,33.0,32.0,-100.00,NW,320,0.0,0.0,94,0.00,,,0.04,,2013-03-31 11:32:00,
2013-03-31 03:42:00,33.0,32.0,-100.00,NW,320,0.0,0.0,94,0.00,,,0.04,,2013-03-31 11:42:00,
2013-03-31 03:51:00,33.0,32.0,-100.00,SW,235,0.0,1.0,95,0.00,,,0.04,,2013-03-31 11:51:00,
2013-03-31 04:02:00,33.0,32.0,-100.00,SW,235,0.0,1.0,95,0.00,,,0.04,,2013-03-31 12:02:00,
2013-03-31 04:12:00,33.0,32.0,-100.00,SW,235,0.0,1.0,95,0.00,,,0.04,,2013-03-31 12:12:00,
2013-03-31 04:21:00,33.0,31.0,-100.00,ENE,65,0.0,0.0,95,0.00,,,0.04,,2013-03-31 12:21:00,
2013-03-31 04:32:00,33.0,31.0,-100.00,ENE,65,0.0,0.0,95,0.00,,,0.04,,2013-03-31 12:32:00,
2013-03-31 04:42:00,33.0,31.0,-100.00,ENE,65,0.0,0.0,95,0.00,,,0.04,,2013-03-31 12:42:00,
2013-03-31 04:52:00,32.0,32.0,-100.00,SSE,160,1.0,1.0,96,0.00,,,0.04,,2013-03-31 12:52:00,
2013-03-31 05:02:00,32.0,32.0,-100.00,SSE,160,1.0,1.0,96,0.00,,,0.04,,2013-03-31 13:02:00,
2013-03-31 05:12:00,32.0,32.0,-100.00,SSE,160,1.0,1.0,96,0.00,,,0.04,,2013-03-31 13:12:00,
2013-03-31 05:22:00,33.0,32.0,-100.00,NE,55,1.0,1.0,96,0.00,,,0.04,,2013-03-31 13:22:00,
2013-03-31 05:32:00,33.0,32.0,-100.00,NE,55,1.0,1.0,96,0.00,,,0.04,,2013-03-31 13:32:00,
2013-03-31 05:42:00,33.0,32.0,-100.00,NE,55,1.0,1.0,96,0.00,,,0.04,,2013-03-31 13:42:00,
2013-03-31 05:52:00,33.0,32.0,-100.00,South,185,0.0,1.0,96,0.00,,,0.02,,2013-03-31 13:52:00,
2013-03-31 06:02:00,33.0,32.0,-100.00,South,185,0.0,1.0,96,0.00,,,0.02,,2013-03-31 14:02:00,
2013-03-31 06:11:00,33.0,32.0,-100.00,South,185,0.0,1.0,96,0.00,,,0.02,,2013-03-31 14:11:00,
2013-03-31 06:22:00,33.0,32.0,-100.00,East,100,0.0,0.0,96,0.00,,,0.02,,2013-03-31 14:22:00,
2013-03-31 06:32:00,33.0,32.0,-100.00,East,100,0.0,0.0,96,0.00,,,0.02,,2013-03-31 14:32:00,
2013-03-31 06:42:00,33.0,32.0,-100.00,East,100,0.0,0.0,96,0.00,,,0.02,,2013-03-31 14:42:00,
2013-03-31 06:52:00,33.0,32.0,-100.00,East,95,0.0,1.0,96,0.00,,,0.02,,2013-03-31 14:52:00,
2013-03-31 07:02:00,33.0,32.0,-100.00,East,95,0.0,1.0,96,0.00,,,0.02,,2013-03-31 15:02:00,
2013-03-31 07:12:00,33.0,32.0,-100.00,East,95,0.0,1.0,96,0.00,,,0.02,,2013-03-31 15:12:00,
2013-03-31 07:22:00,32.0,32.0,-100.00,NNE,30,0.0,1.0,96,0.00,,,0.02,,2013-03-31 15:22:00,
2013-03-31 07:33:00,32.0,32.0,-100.00,NNE,30,0.0,1.0,96,0.00,,,0.02,,2013-03-31 15:33:00,
2013-03-31 07:43:00,32.0,32.0,-100.00,NNE,30,0.0,1.0,96,0.00,,,0.02,,2013-03-31 15:43:00,
2013-03-31 07:53:00,33.0,32.0,-100.00,East,80,1.0,1.0,97,0.00,,,0.02,,2013-03-31 15:53:00,
2013-03-31 08:03:00,33.0,32.0,-100.00,East,80,1.0,1.0,97,0.00,,,0.02,,2013-03-31 16:03:00,
2013-03-31 08:13:00,33.0,32.0,-100.00,East,80,1.0,1.0,97,0.00,,,0.02,,2013-03-31 16:13:00,
2013-03-31 08:22:00,33.0,32.0,-100.00,SW,230,0.0,0.0,97,0.00,,,0.00,,2013-03-31 16:22:00,
2013-03-31 08:33:00,33.0,32.0,-100.00,SW,230,0.0,0.0,97,0.00,,,0.00,,2013-03-31 16:33:00,
2013-03-31 08:42:00,33.0,32.0,-100.00,SW,230,0.0,0.0,97,0.00,,,0.00,,2013-03-31 16:42:00,
2013-03-31 08:52:00,34.0,30.0,-100.00,East,80,1.0,1.0,85,0.00,,,0.00,,2013-03-31 16:52:00,
2013-03-31 09:02:00,34.0,30.0,-100.00,East,80,1.0,1.0,85,0.00,,,0.00,,2013-03-31 17:02:00,
2013-03-31 09:12:00,34.0,30.0,-100.00,East,80,1.0,1.0,85,0.00,,,0.00,,2013-03-31 17:12:00,
2013-03-31 09:22:00,36.0,27.0,-100.00,South,170,1.0,2.0,69,0.00,,,0.00,,2013-03-31 17:22:00,
2013-03-31 09:32:00,36.0,27.0,-100.00,South,170,1.0,2.0,69,0.00,,,0.00,,2013-03-31 17:32:00,
2013-03-31 09:42:00,36.0,27.0,-100.00,South,170,1.0,2.0,69,0.00,,,0.00,,2013-03-31 17:42:00,
2013-03-31 09:51:00,37.0,24.0,-100.00,SSE,155,0.0,2.0,58,0.00,,,0.00,,2013-03-31 17:51:00,
2013-03-31 10:02:00,37.0,24.0,-100.00,SSE,155,0.0,2.0,58,0.00,,,0.00,,2013-03-31 18:02:00,
2013-03-31 10:12:00,37.0,24.0,-100.00,SSE,155,0.0,2.0,58,0.00,,,0.00,,2013-03-31 18:12:00,
2013-03-31 10:22:00,40.0,26.0,-100.00,South,190,1.0,3.0,56,0.00,,,0.00,,2013-03-31 18:22:00,
2013-03-31 10:32:00,40.0,26.0,-100.00,South,190,1.0,3.0,56,0.00,,,0.00,,2013-03-31 18:32:00,
2013-03-31 10:42:00,40.0,26.0,-100.00,South,190,1.0,3.0,56,0.00,,,0.00,,2013-03-31 18:42:00,
2013-03-31 10:52:00,40.0,26.0,-100.00,SSE,165,3.0,4.0,57,0.00,,,0.00,,2013-03-31 18:52:00,
2013-03-31 11:02:00,40.0,26.0,-100.00,SSE,165,3.0,4.0,57,0.00,,,0.00,,2013-03-31 19:02:00,
2013-03-31 11:12:00,40.0,26.0,-100.00,SSE,165,3.0,4.0,57,0.00,,,0.00,,2013-03-31 19:12:00,
2013-03-31 11:21:00,41.0,27.0,-100.00,WSW,250,3.0,5.0,57,0.00,,,0.00,,2013-03-31 19:21:00,
2013-03-31 11:32:00,41.0,27.0,-100.00,WSW,250,3.0,5.0,57,0.00,,,0.00,,2013-03-31 19:32:00,
2013-03-31 11:42:00,41.0,27.0,-100.00,WSW,250,3.0,5.0,57,0.00,,,0.00,,2013-03-31 19:42:00,
2013-03-31 11:53:00,41.0,26.0,-100.00,South,180,2.0,6.0,55,0.00,,,0.00,,2013-03-31 19:53:00,
2013-03-31 12:02:00,41.0,26.0,-100.00,South,180,2.0,6.0,55,0.00,,,0.00,,2013-03-31 20:02:00,
2013-03-31 12:12:00,41.0,26.0,-100.00,South,180,2.0,6.0,55,0.00,,,0.00,,2013-03-31 20:12:00,
2013-03-31 12:22:00,43.0,27.0,-100.00,SSE,165,3.0,5.0,52,0.00,,,0.00,,2013-03-31 20:22:00,
2013-03-31 12:33:00,43.0,27.0,-100.00,SSE,165,3.0,5.0,52,0.00,,,0.00,,2013-03-31 20:33:00,
2013-03-31 12:42:00,43.0,27.0,-100.00,SSE,165,3.0,5.0,52,0.00,,,0.00,,2013-03-31 20:42:00,
2013-03-31 12:52:00,44.0,26.0,-100.00,West,265,1.0,4.0,50,0.00,,,0.00,,2013-03-31 20:52:00,
2013-03-31 13:02:00,44.0,26.0,-100.00,West,265,1.0,4.0,50,0.00,,,0.00,,2013-03-31 21:02:00,
2013-03-31 13:12:00,44.0,26.0,-100.00,West,265,1.0,4.0,50,0.00,,,0.00,,2013-03-31 21:12:00,
2013-03-31 13:22:00,44.0,25.0,-100.00,South,170,2.0,6.0,47,0.00,,,0.00,,2013-03-31 21:22:00,
2013-03-31 13:33:00,44.0,25.0,-100.00,South,170,2.0,6.0,47,0.00,,,0.00,,2013-03-31 21:33:00,
2013-03-31 13:43:00,44.0,25.0,-100.00,South,170,2.0,6.0,47,0.00,,,0.00,,2013-03-31 21:43:00,
2013-03-31 13:53:00,45.0,25.0,-100.00,SE,135,0.0,1.0,44,0.00,,,0.00,,2013-03-31 21:53:00,
2013-03-31 14:03:00,45.0,25.0,-100.00,SE,135,0.0,1.0,44,0.00,,,0.00,,2013-03-31 22:03:00,
2013-03-31 14:13:00,45.0,25.0,-100.00,SE,135,0.0,1.0,44,0.00,,,0.00,,2013-03-31 22:13:00,
2013-03-31 14:23:00,45.0,25.0,-100.00,ENE,75,1.0,4.0,46,0.00,,,0.00,,2013-03-31 22:23:00,
2013-03-31 14:33:00,45.0,25.0,-100.00,ENE,75,1.0,4.0,46,0.00,,,0.00,,2013-03-31 22:33:00,
2013-03-31 14:42:00,45.0,25.0,-100.00,ENE,75,1.0,4.0,46,0.00,,,0.00,,2013-03-31 22:42:00,
2013-03-31 14:52:00,44.0,25.0,-100.00,South,190,1.0,4.0,46,0.00,,,0.00,,2013-03-31 22:52:00,
2013-03-31 15:02:00,44.0,25.0,-100.00,South,190,1.0,4.0,46,0.00,,,0.00,,2013-03-31 23:02:00,
2013-03-31 15:12:00,44.0,25.0,-100.00,South,190,1.0,4.0,46,0.00,,,0.00,,2013-03-31 23:12:00,
2013-03-31 15:22:00,45.0,25.0,-100.00,SSW,210,2.0,4.0,45,0.00,,,0.00,,2013-03-31 23:22:00,
2013-03-31 15:32:00,45.0,25.0,-100.00,SSW,210,2.0,4.0,45,0.00,,,0.00,,2013-03-31 23:32:00,
2013-03-31 15:42:00,45.0,25.0,-100.00,SSW,210,2.0,4.0,45,0.00,,,0.00,,2013-03-31 23:42:00,
2013-03-31 15:52:00,46.0,25.0,-100.00,SSE,165,2.0,4.0,44,0.00,,,0.00,,2013-03-31 23:52:00,
2013-03-31 16:02:00,46.0,25.0,-100.00,SSE,165,2.0,4.0,44,0.00,,,0.00,,2013-04-01 00:02:00,
2013-03-31 16:12:00,46.0,25.0,-100.00,SSE,165,2.0,4.0,44,0.00,,,0.00,,2013-04-01 00:12:00,
2013-03-31 16:21:00,45.0,25.0,-100.00,SE,140,3.0,5.0,44,0.00,,,0.00,,2013-04-01 00:21:00,
2013-03-31 16:32:00,45.0,25.0,-100.00,SE,140,3.0,5.0,44,0.00,,,0.00,,2013-04-01 00:32:00,
2013-03-31 16:42:00,45.0,25.0,-100.00,SE,140,3.0,5.0,44,0.00,,,0.00,,2013-04-01 00:42:00,
2013-03-31 16:52:00,44.0,24.0,-100.00,SSE,165,2.0,5.0,45,0.00,,,0.00,,2013-04-01 00:52:00,
2013-03-31 17:02:00,44.0,24.0,-100.00,SSE,165,2.0,5.0,45,0.00,,,0.00,,2013-04-01 01:02:00,
2013-03-31 17:12:00,44.0,24.0,-100.00,SSE,165,2.0,5.0,45,0.00,,,0.00,,2013-04-01 01:12:00,
2013-03-31 17:21:00,44.0,24.0,-100.00,South,170,2.0,4.0,45,0.00,,,0.00,,2013-04-01 01:21:00,
2013-03-31 17:32:00,44.0,24.0,-100.00,South,170,2.0,4.0,45,0.00,,,0.00,,2013-04-01 01:32:00,
2013-03-31 17:42:00,44.0,24.0,-100.00,South,170,2.0,4.0,45,0.00,,,0.00,,2013-04-01 01:42:00,
2013-03-31 17:52:00,44.0,24.0,-100.00,West,265,3.0,5.0,46,0.00,,,0.00,,2013-04-01 01:52:00,
2013-03-31 18:02:00,44.0,24.0,-100.00,West,265,3.0,5.0,46,0.00,,,0.00,,2013-04-01 02:02:00,
2013-03-31 18:12:00,44.0,24.0,-100.00,West,265,3.0,5.0,46,0.00,,,0.00,,2013-04-01 02:12:00,
2013-03-31 18:22:00,43.0,24.0,-100.00,SW,230,4.0,5.0,46,0.00,,,0.00,,2013-04-01 02:22:00,
2013-03-31 18:32:00,43.0,24.0,-100.00,SW,230,4.0,5.0,46,0.00,,,0.00,,2013-04-01 02:32:00,
2013-03-31 18:42:00,43.0,24.0,-100.00,SW,230,4.0,5.0,46,0.00,,,0.00,,2013-04-01 02:42:00,
2013-03-31 18:52:00,42.0,23.0,-100.00,WNW,290,2.0,4.0,46,0.00,,,0.00,,2013-04-01 02:52:00,
2013-03-31 19:02:00,42.0,23.0,-100.00,WNW,290,2.0,4.0,46,0.00,,,0.00,,2013-04-01 03:02:00,
2013-03-31 19:12:00,42.0,23.0,-100.00,WNW,290,2.0,4.0,46,0.00,,,0.00,,2013-04-01 03:12:00,
2013-03-31 19:22:00,41.0,23.0,-100.00,East,80,1.0,2.0,48,0.00,,,0.00,,2013-04-01 03:22:00,
2013-03-31 19:33:00,41.0,23.0,-100.00,East,80,1.0,2.0,48,0.00,,,0.00,,2013-04-01 03:33:00,
2013-03-31 19:43:00,41.0,23.0,-100.00,East,80,1.0,2.0,48,0.00,,,0.00,,2013-04-01 03:43:00,
2013-03-31 19:52:00,39.0,23.0,-100.00,SE,125,1.0,1.0,52,0.00,,,0.00,,2013-04-01 03:52:00,
2013-03-31 20:02:00,39.0,23.0,-100.00,SE,125,1.0,1.0,52,0.00,,,0.00,,2013-04-01 04:02:00,
2013-03-31 20:13:00,39.0,23.0,-100.00,SE,125,1.0,1.0,52,0.00,,,0.00,,2013-04-01 04:13:00,
2013-03-31 20:23:00,37.0,24.0,-100.00,NE,55,1.0,2.0,58,0.00,,,0.00,,2013-04-01 04:23:00,
2013-03-31 20:32:00,37.0,24.0,-100.00,NE,55,1.0,2.0,58,0.00,,,0.00,,2013-04-01 04:32:00,
2013-03-31 20:43:00,37.0,24.0,-100.00,NE,55,1.0,2.0,58,0.00,,,0.00,,2013-04-01 04:43:00,
2013-03-31 20:52:00,36.0,24.0,-100.00,NE,40,0.0,1.0,61,0.00,,,0.00,,2013-04-01 04:52:00,
2013-03-31 21:02:00,36.0,24.0,-100.00,NE,40,0.0,1.0,61,0.00,,,0.00,,2013-04-01 05:02:00,
2013-03-31 21:12:00,36.0,24.0,-100.00,NE,40,0.0,1.0,61,0.00,,,0.00,,2013-04-01 05:12:00,
2013-03-31 21:22:00,36.0,24.0,-100.00,NE,35,1.0,2.0,63,0.00,,,0.00,,2013-04-01 05:22:00,
2013-03-31 21:32:00,36.0,24.0,-100.00,NE,35,1.0,2.0,63,0.00,,,0.00,,2013-04-01 05:32:00,
2013-03-31 21:42:00,36.0,24.0,-100.00,NE,35,1.0,2.0,63,0.00,,,0.00,,2013-04-01 05:42:00,
2013-03-31 21:52:00,35.0,26.0,-100.00,ENE,60,1.0,2.0,67,0.00,,,0.00,,2013-04-01 05:52:00,
2013-03-31 22:02:00,35.0,26.0,-100.00,ENE,60,1.0,2.0,67,0.00,,,0.00,,2013-04-01 06:02:00,
2013-03-31 22:12:00,35.0,26.0,-100.00,ENE,60,1.0,2.0,67,0.00,,,0.00,,2013-04-01 06:12:00,
2013-03-31 22:22:00,35.0,26.0,-100.00,ESE,105,1.0,2.0,68,0.00,,,0.00,,2013-04-01 06:22:00,
2013-03-31 22:33:00,35.0,26.0,-100.00,ESE,105,1.0,2.0,68,0.00,,,0.00,,2013-04-01 06:33:00,
2013-03-31 22:42:00,35.0,26.0,-100.00,ESE,105,1.0,2.0,68,0.00,,,0.00,,2013-04-01 06:42:00,
2013-03-31 22:52:00,35.0,27.0,-100.00,West,260,0.0,1.0,70,0.00,,,0.00,,2013-04-01 06:52:00,
2013-03-31 23:02:00,35.0,27.0,-100.00,West,260,0.0,1.0,70,0.00,,,0.00,,2013-04-01 07:02:00,
2013-03-31 23:12:00,35.0,27.0,-100.00,West,260,0.0,1.0,70,0.00,,,0.00,,2013-04-01 07:12:00,
2013-03-31 23:22:00,34.0,27.0,-100.00,NNE,30,0.0,1.0,75,0.00,,,0.00,,2013-04-01 07:22:00,
2013-03-31 23:32:00,34.0,27.0,-100.00,NNE,30,0.0,1.0,75,0.00,,,0.00,,2013-04-01 07:32:00,
2013-03-31 23:42:00,34.0,27.0,-100.00,NNE,30,0.0,1.0,75,0.00,,,0.00,,2013-04-01 07:42:00,
2013-03-31 23:52:00,34.0,26.0,-100.00,West,270,0.0,0.0,74,0.00,,,0.00,,2013-04-01 07:52:00,